SBI5313 UNNT-UNAA

Flight info

Callsign SBI5313
Flight time 0h 54m
Altitude 35000
Route OGATI1K OGATI A308 DOREM DOREM1E
Aircraft A319/M-SDE3FGHIRWY/LB1

Departure

Time 2026-04-23 21:21
Airport Novosibirsk Tolmachevo Airport (UNNT)

Arrival

Time 2026-04-23 22:15
Airport Abakan International Airport (UNAA)
Time Latitude Longitude Altitude Speed Heading
2026-04-23 20:49 55.01149 82.66835 373 ft 0 kts 171°
2026-04-23 21:17 55.01148 82.66836 373 ft 1 kts 171°
2026-04-23 21:17 55.01136 82.66839 373 ft 3 kts 171°
2026-04-23 21:17 55.01108 82.66837 373 ft 5 kts 205°
2026-04-23 21:17 55.01099 82.66769 373 ft 6 kts 269°
2026-04-23 21:18 55.01099 82.66681 373 ft 8 kts 287°
2026-04-23 21:18 55.01151 82.66649 373 ft 9 kts 353°
2026-04-23 21:18 55.01218 82.66634 373 ft 10 kts 351°
2026-04-23 21:18 55.01293 82.66612 373 ft 12 kts 351°
2026-04-23 21:19 55.01371 82.66582 374 ft 11 kts 328°
2026-04-23 21:19 55.01372 82.66470 375 ft 7 kts 261°
2026-04-23 21:19 55.01370 82.66449 375 ft 0 kts 262°
2026-04-23 21:19 55.01370 82.66441 375 ft 2 kts 262°
2026-04-23 21:20 55.01367 82.66411 375 ft 4 kts 262°
2026-04-23 21:20 55.01353 82.66259 373 ft 32 kts 261°
2026-04-23 21:20 55.01274 82.65376 373 ft 111 kts 261°
2026-04-23 21:20 55.01116 82.63684 414 ft 165 kts 263°
2026-04-23 21:21 55.00924 82.61708 1094 ft 167 kts 264°
2026-04-23 21:21 55.00725 82.59690 1859 ft 171 kts 266°
2026-04-23 21:21 55.00529 82.57609 2501 ft 181 kts 269°
2026-04-23 21:21 55.00345 82.55358 3043 ft 196 kts 269°
2026-04-23 21:22 55.00348 82.52944 3624 ft 206 kts 293°
2026-04-23 21:22 55.01285 82.50996 4096 ft 227 kts 332°
2026-04-23 21:22 55.02881 82.50348 4886 ft 244 kts 353°
2026-04-23 21:22 55.04612 82.50371 5852 ft 252 kts 359°
2026-04-23 21:23 55.06387 82.50581 6792 ft 259 kts 359°
2026-04-23 21:23 55.08181 82.50805 7708 ft 264 kts 358°
2026-04-23 21:23 55.10033 82.50995 8654 ft 269 kts 357°
2026-04-23 21:23 55.11893 82.51748 9541 ft 289 kts 22°
2026-04-23 21:24 55.13430 82.54210 10146 ft 321 kts 52°
2026-04-23 21:24 55.14301 82.58020 10462 ft 354 kts 75°
2026-04-23 21:24 55.14316 82.62440 10925 ft 376 kts 103°
2026-04-23 21:24 55.13400 82.66763 11662 ft 382 kts 116°
2026-04-23 21:25 55.12224 82.70963 12468 ft 387 kts 119°
2026-04-23 21:25 55.10876 82.75055 13255 ft 390 kts 126°
2026-04-23 21:25 55.09164 82.78746 13992 ft 392 kts 136°
2026-04-23 21:25 55.07275 82.82136 14699 ft 395 kts 139°
2026-04-23 21:26 55.05282 82.85487 15403 ft 398 kts 141°
2026-04-23 21:26 55.03236 82.88790 16116 ft 402 kts 141°
2026-04-23 21:26 55.01157 82.92090 16828 ft 406 kts 142°
2026-04-23 21:26 54.99057 82.95418 17530 ft 410 kts 142°
2026-04-23 21:27 54.96968 82.98837 18208 ft 416 kts 137°
2026-04-23 21:27 54.95162 83.02840 18832 ft 424 kts 125°
2026-04-23 21:27 54.93821 83.07460 19480 ft 431 kts 113°
2026-04-23 21:27 54.93006 83.12502 20141 ft 436 kts 102°
2026-04-23 21:28 54.92718 83.17775 20791 ft 440 kts 94°
2026-04-23 21:28 54.92555 83.23107 21415 ft 443 kts 95°
2026-04-23 21:28 54.92380 83.28466 22012 ft 446 kts 96°
2026-04-23 21:28 54.92197 83.33788 22576 ft 449 kts 97°
2026-04-23 21:29 54.91988 83.39293 23151 ft 452 kts 98°
2026-04-23 21:29 54.91756 83.44683 23640 ft 454 kts 98°
2026-04-23 21:29 54.91504 83.50174 24112 ft 456 kts 99°
2026-04-23 21:29 54.91244 83.55679 24569 ft 458 kts 99°
2026-04-23 21:30 54.90982 83.61210 25025 ft 460 kts 99°
2026-04-23 21:30 54.90721 83.66759 25481 ft 462 kts 99°
2026-04-23 21:30 54.90462 83.72340 25930 ft 464 kts 99°
2026-04-23 21:30 54.90206 83.77946 26381 ft 466 kts 99°
2026-04-23 21:31 54.89950 83.83572 26817 ft 468 kts 99°
2026-04-23 21:31 54.89686 83.89230 27241 ft 471 kts 100°
2026-04-23 21:31 54.89415 83.94909 27665 ft 473 kts 100°
2026-04-23 21:31 54.89141 84.00610 28077 ft 475 kts 100°
2026-04-23 21:32 54.88863 84.06348 28474 ft 477 kts 100°
2026-04-23 21:32 54.88580 84.12107 28861 ft 480 kts 100°
2026-04-23 21:32 54.88296 84.17817 29239 ft 482 kts 100°
2026-04-23 21:32 54.88001 84.23640 29601 ft 484 kts 100°
2026-04-23 21:33 54.87704 84.29474 29937 ft 487 kts 100°
2026-04-23 21:33 54.87406 84.35350 30228 ft 489 kts 100°
2026-04-23 21:33 54.87107 84.41247 30515 ft 492 kts 100°
2026-04-23 21:33 54.86802 84.47173 30895 ft 491 kts 100°
2026-04-23 21:34 54.86495 84.53071 31310 ft 491 kts 100°
2026-04-23 21:34 54.86184 84.58960 31713 ft 490 kts 100°
2026-04-23 21:34 54.85869 84.64849 32122 ft 490 kts 100°
2026-04-23 21:34 54.85551 84.70744 32530 ft 489 kts 100°
2026-04-23 21:35 54.85240 84.76630 32940 ft 489 kts 100°
2026-04-23 21:35 54.84936 84.82497 33365 ft 489 kts 100°
2026-04-23 21:35 54.84632 84.88371 33775 ft 488 kts 100°
2026-04-23 21:35 54.84325 84.94235 34115 ft 488 kts 100°
2026-04-23 21:36 54.83697 85.05973 34670 ft 490 kts 100°
2026-04-23 21:36 54.83378 85.11842 34721 ft 488 kts 100°
2026-04-23 21:37 54.82725 85.23557 34715 ft 487 kts 100°
2026-04-23 21:37 54.82050 85.35256 34711 ft 487 kts 100°
2026-04-23 21:38 54.81355 85.46857 34702 ft 487 kts 101°
2026-04-23 21:38 54.80629 85.58529 34701 ft 487 kts 101°
2026-04-23 21:39 54.79894 85.70226 34887 ft 489 kts 101°
2026-04-23 21:39 54.79525 85.76083 35226 ft 489 kts 100°
2026-04-23 21:39 54.79153 85.81941 35515 ft 489 kts 100°
2026-04-23 21:39 54.78776 85.87809 35791 ft 490 kts 100°
2026-04-23 21:40 54.78395 85.93691 36054 ft 491 kts 100°
2026-04-23 21:40 54.78013 85.99565 36319 ft 491 kts 100°
2026-04-23 21:40 54.77629 86.05454 36573 ft 492 kts 99°
2026-04-23 21:40 54.77245 86.11356 36680 ft 493 kts 99°
2026-04-23 21:41 54.76859 86.17271 36686 ft 493 kts 99°
2026-04-23 21:41 54.76085 86.28993 36685 ft 493 kts 99°
2026-04-23 21:42 54.75285 86.40803 36685 ft 493 kts 100°
2026-04-23 21:42 54.74470 86.52605 36682 ft 493 kts 100°
2026-04-23 21:43 54.73656 86.64392 36682 ft 493 kts 100°
2026-04-23 21:43 54.72830 86.76116 36682 ft 493 kts 100°
2026-04-23 21:44 54.71988 86.87901 36676 ft 493 kts 100°
2026-04-23 21:44 54.71129 86.99677 36679 ft 493 kts 100°
2026-04-23 21:45 54.70263 87.11438 36682 ft 493 kts 100°
2026-04-23 21:45 54.69390 87.23214 36684 ft 493 kts 100°
2026-04-23 21:46 54.68507 87.34972 36686 ft 493 kts 100°
2026-04-23 21:46 54.67601 87.46738 36689 ft 493 kts 100°
2026-04-23 21:47 54.66681 87.58486 36696 ft 493 kts 100°
2026-04-23 21:47 54.65735 87.70558 36699 ft 493 kts 100°
2026-04-23 21:48 54.64806 87.82301 36705 ft 494 kts 100°
2026-04-23 21:48 54.63863 87.93976 36709 ft 493 kts 101°
2026-04-23 21:49 54.62910 88.05707 36711 ft 493 kts 101°
2026-04-23 21:49 54.62108 88.15444 36714 ft 493 kts 101°
2026-04-23 21:50 54.61129 88.27169 36719 ft 493 kts 101°
2026-04-23 21:50 54.59981 88.40774 36661 ft 494 kts 101°
2026-04-23 21:50 54.59644 88.44730 36475 ft 493 kts 101°
2026-04-23 21:51 54.59141 88.50571 36210 ft 492 kts 101°
2026-04-23 21:51 54.58634 88.56409 35950 ft 491 kts 101°
2026-04-23 21:51 54.58089 88.62146 35697 ft 490 kts 105°
2026-04-23 21:51 54.57161 88.67753 35418 ft 485 kts 114°
2026-04-23 21:52 54.55822 88.73086 34514 ft 484 kts 123°
2026-04-23 21:52 54.54225 88.78198 33709 ft 486 kts 123°
2026-04-23 21:52 54.52619 88.83336 32620 ft 490 kts 123°
2026-04-23 21:52 54.51011 88.88510 31621 ft 492 kts 123°
2026-04-23 21:53 54.49397 88.93727 30559 ft 495 kts 123°
2026-04-23 21:53 54.47774 88.98981 29441 ft 499 kts 122°
2026-04-23 21:53 54.46158 89.04205 28792 ft 489 kts 122°
2026-04-23 21:53 54.44573 89.09329 28093 ft 481 kts 122°
2026-04-23 21:54 54.43009 89.14368 27416 ft 474 kts 122°
2026-04-23 21:54 54.41462 89.19320 26758 ft 468 kts 122°
2026-04-23 21:54 54.39934 89.24190 26112 ft 462 kts 122°
2026-04-23 21:54 54.38411 89.29031 25474 ft 458 kts 122°
2026-04-23 21:55 54.36925 89.33749 24846 ft 454 kts 122°
2026-04-23 21:55 54.35426 89.38487 24220 ft 450 kts 122°
2026-04-23 21:55 54.33937 89.43186 23602 ft 447 kts 122°
2026-04-23 21:55 54.32453 89.47845 22940 ft 443 kts 122°
2026-04-23 21:56 54.30984 89.52452 22355 ft 438 kts 122°
2026-04-23 21:56 54.29535 89.57006 21810 ft 433 kts 122°
2026-04-23 21:56 54.28103 89.61511 21281 ft 428 kts 122°
2026-04-23 21:56 54.26687 89.65958 20779 ft 424 kts 122°
2026-04-23 21:57 54.25278 89.70367 20289 ft 420 kts 122°
2026-04-23 21:57 54.23878 89.74740 19807 ft 417 kts 122°
2026-04-23 21:57 54.22489 89.79065 19336 ft 413 kts 122°
2026-04-23 21:57 54.21107 89.83359 18865 ft 410 kts 122°
2026-04-23 21:58 54.19736 89.87601 18381 ft 407 kts 122°
2026-04-23 21:58 54.18393 89.91850 17862 ft 405 kts 121°
2026-04-23 21:58 54.17085 89.96089 17338 ft 402 kts 121°
2026-04-23 21:58 54.15801 90.00296 16842 ft 397 kts 121°
2026-04-23 21:59 54.14532 90.04453 16323 ft 393 kts 121°
2026-04-23 21:59 54.13269 90.08568 15823 ft 390 kts 122°
2026-04-23 21:59 54.12020 90.12603 15311 ft 388 kts 122°
2026-04-23 22:00 54.09503 90.20683 14273 ft 384 kts 123°
2026-04-23 22:00 54.08248 90.24693 13752 ft 382 kts 123°
2026-04-23 22:00 54.06997 90.28674 13184 ft 381 kts 123°
2026-04-23 22:00 54.05753 90.32630 12657 ft 377 kts 123°
2026-04-23 22:01 54.04521 90.36545 12120 ft 374 kts 123°
2026-04-23 22:01 54.03303 90.40427 11586 ft 370 kts 123°
2026-04-23 22:01 54.02096 90.44269 11038 ft 366 kts 123°
2026-04-23 22:01 54.00900 90.48072 10566 ft 361 kts 123°
2026-04-23 22:02 53.99741 90.51750 10433 ft 345 kts 123°
2026-04-23 22:02 53.98627 90.55284 10301 ft 331 kts 124°
2026-04-23 22:02 53.97560 90.58662 10177 ft 318 kts 123°
2026-04-23 22:02 53.96545 90.61867 10050 ft 305 kts 124°
2026-04-23 22:03 53.95553 90.64988 9858 ft 297 kts 124°
2026-04-23 22:03 53.94579 90.68049 9697 ft 293 kts 122°
2026-04-23 22:03 53.93870 90.71310 9493 ft 297 kts 108°
2026-04-23 22:03 53.93569 90.74801 9282 ft 299 kts 100°
2026-04-23 22:04 53.93336 90.78303 9071 ft 299 kts 100°
2026-04-23 22:04 53.93101 90.81801 8856 ft 298 kts 100°
2026-04-23 22:04 53.92864 90.85288 8647 ft 297 kts 100°
2026-04-23 22:04 53.92629 90.88753 8379 ft 293 kts 99°
2026-04-23 22:05 53.92395 90.92167 8066 ft 290 kts 99°
2026-04-23 22:05 53.92157 90.95557 7772 ft 287 kts 99°
2026-04-23 22:05 53.91922 90.98903 7476 ft 284 kts 99°
2026-04-23 22:05 53.91688 91.02218 7177 ft 282 kts 99°
2026-04-23 22:06 53.91477 91.05510 6921 ft 278 kts 94°
2026-04-23 22:06 53.91665 91.08749 6674 ft 275 kts 77°
2026-04-23 22:06 53.92079 91.11855 6434 ft 271 kts 77°
2026-04-23 22:06 53.92487 91.14950 6199 ft 267 kts 77°
2026-04-23 22:07 53.92889 91.18005 5952 ft 263 kts 77°
2026-04-23 22:07 53.93286 91.21020 5692 ft 260 kts 77°
2026-04-23 22:07 53.93674 91.24000 5443 ft 257 kts 78°
2026-04-23 22:07 53.94055 91.26931 5188 ft 251 kts 78°
2026-04-23 22:08 53.94427 91.29784 4938 ft 244 kts 78°
2026-04-23 22:08 53.94788 91.32558 4682 ft 238 kts 79°
2026-04-23 22:08 53.95041 91.35296 4486 ft 232 kts 92°
2026-04-23 22:08 53.94813 91.37929 4318 ft 220 kts 112°
2026-04-23 22:09 53.94215 91.40253 4170 ft 211 kts 119°
2026-04-23 22:09 53.93606 91.42477 4049 ft 203 kts 119°
2026-04-23 22:09 53.93024 91.44616 3978 ft 198 kts 119°
2026-04-23 22:09 53.92446 91.46689 3983 ft 196 kts 123°
2026-04-23 22:10 53.91620 91.48403 3984 ft 183 kts 144°
2026-04-23 22:10 53.90547 91.49467 3984 ft 169 kts 164°
2026-04-23 22:10 53.89414 91.49844 3959 ft 163 kts 181°
2026-04-23 22:10 53.88342 91.49624 3826 ft 148 kts 197°
2026-04-23 22:11 53.87444 91.49002 3663 ft 136 kts 206°
2026-04-23 22:11 53.86594 91.48338 3486 ft 133 kts 205°
2026-04-23 22:11 53.85757 91.47685 3312 ft 132 kts 204°
2026-04-23 22:11 53.84930 91.47039 3132 ft 130 kts 204°
2026-04-23 22:12 53.84110 91.46398 2948 ft 130 kts 203°
2026-04-23 22:12 53.83290 91.45754 2748 ft 131 kts 204°
2026-04-23 22:12 53.82464 91.45106 2567 ft 131 kts 204°
2026-04-23 22:12 53.81639 91.44461 2387 ft 131 kts 204°
2026-04-23 22:13 53.80807 91.43816 2195 ft 132 kts 204°
2026-04-23 22:13 53.79968 91.43159 1998 ft 133 kts 204°
2026-04-23 22:13 53.79128 91.42504 1803 ft 132 kts 204°
2026-04-23 22:13 53.78292 91.41854 1607 ft 132 kts 205°
2026-04-23 22:14 53.77470 91.41218 1433 ft 132 kts 205°
2026-04-23 22:14 53.76628 91.40556 1238 ft 134 kts 205°
2026-04-23 22:14 53.75780 91.39893 1028 ft 134 kts 205°
2026-04-23 22:14 53.74929 91.39242 835 ft 132 kts 205°
2026-04-23 22:15 53.74131 91.38625 813 ft 119 kts 204°
2026-04-23 22:15 53.73528 91.38147 806 ft 71 kts 206°
2026-04-23 22:15 53.73218 91.37903 810 ft 31 kts 205°
2026-04-23 22:15 53.73107 91.37820 809 ft 11 kts 186°
2026-04-23 22:16 53.73107 91.37891 810 ft 11 kts 14°
2026-04-23 22:16 53.73211 91.37904 810 ft 18 kts 21°
2026-04-23 22:16 53.73329 91.37994 813 ft 21 kts 25°
2026-04-23 22:16 53.73469 91.38101 813 ft 23 kts 24°
2026-04-23 22:17 53.73622 91.38220 811 ft 26 kts 25°
2026-04-23 22:17 53.73796 91.38356 810 ft 29 kts 25°
2026-04-23 22:17 53.73980 91.38499 813 ft 27 kts 24°
2026-04-23 22:17 53.74117 91.38606 810 ft 19 kts 25°
2026-04-23 22:18 53.74232 91.38707 808 ft 20 kts 34°
2026-04-23 22:18 53.74337 91.38876 806 ft 18 kts 52°
2026-04-23 22:18 53.74393 91.39012 805 ft 11 kts 55°
2026-04-23 22:18 53.74438 91.39121 805 ft 13 kts 55°
2026-04-23 22:19 53.74506 91.39220 805 ft 11 kts 25°
2026-04-23 22:19 53.74583 91.39279 805 ft 13 kts 24°
2026-04-23 22:19 53.74670 91.39346 805 ft 15 kts 24°
2026-04-23 22:19 53.74764 91.39419 804 ft 15 kts 25°
2026-04-23 22:20 53.74853 91.39489 804 ft 11 kts 24°
2026-04-23 22:20 53.74918 91.39538 803 ft 8 kts 25°
2026-04-23 22:20 53.74938 91.39601 804 ft 7 kts 108°
2026-04-23 22:20 53.74922 91.39685 804 ft 8 kts 84°
2026-04-23 22:21 53.74964 91.39732 804 ft 8 kts 354°
2026-04-23 22:21 53.75024 91.39708 800 ft 9 kts
2026-04-23 22:21 53.75050 91.39799 801 ft 9 kts 73°
2026-04-23 22:21 53.75037 91.39883 800 ft 6 kts 145°
2026-04-23 22:22 53.75014 91.39897 800 ft 2 kts 162°
2026-04-23 22:22 53.75002 91.39903 800 ft 0 kts 162°